Lexington Weather

Lexington, Massachusetts, USA

34°F
4/16/2021 10:35am 
  • Lexington Conditions: Snow, Fog, Overcast
  • Temperature: 34.0°F / 1.1°C 
  • Dew Point: 32.7°F 
  • Relative Humidity: 95
  • Wind: Calm, 10-min avg: Calm, gust: None
  • Barometer: 29.48 in Steady
  • Visibility: ½ mile
  • Snow Today: 1.3 in
  •   

Regional Weather Roundup
for Boston / Norton, MA

        
000
ASUS41 KBOX 110904
RWRBOX

REGIONAL WEATHER ROUNDUP
NATIONAL WEATHER SERVICE BOSTON/NORTON MA
500 AM EDT SUN APR 11 2021

NOTE:  "FAIR" INDICATES FEW OR NO CLOUDS BELOW 12,000 FEET WITH NO 
SIGNIFICANT WEATHER AND/OR OBSTRUCTIONS TO VISIBILITY.

MAZALL-111000-
EASTERN MASSACHUSETTS
  
CITY           SKY/WX    TMP DP  RH WIND       PRES   REMARKS
BOSTON         CLOUDY    49  46  90 NE14      29.73S                  
BEVERLY        CLOUDY    47  45  93 N10       29.73R FOG              
LAWRENCE       CLOUDY    49  46  90 NE12      29.75R                  
BEDFORD        MOCLDY    50  47  89 E9        29.72R                  
BLUE HILL        N/A     45  44  97 NE10      29.71R                  
NORWOOD        MOCLDY    54  49  83 NE12      29.72R                  
MARSHFIELD     FOG       46  46 100 N9G17     29.73R VSB 1/4          
PLYMOUTH       CLOUDY    52  51  97 N6        29.71R                  
TAUNTON        FOG       53  52  96 VRB3      29.70S VSB 3/4          
NEW BEDFORD    FOG       52  51  97 SW5       29.70S VSB 1/2          
$$

MAZALL-111000-
CAPE COD AND THE ISLANDS
  
CITY           SKY/WX    TMP DP  RH WIND       PRES   REMARKS
FALMOUTH       FOG       48  48 100 SW14      29.70F VSB 3/4          
HYANNIS        CLOUDY    52  51  97 SW6       29.69S FOG              
CHATHAM        FOG       49  48  97 SW8       29.71S VSB 1/2          
PROVINCETOWN   FOG       46  46 100 NW6         N/A  VSB 1            
NANTUCKET      FOG       50  50 100 SW10      29.71F VSB 1/4          
MARTHAS VNYRD  FOG       52  52 100 W8        29.71F VSB 1/2          
$$
 
MAZALL-111000-
CENTRAL AND WESTERN MASSACHUSETTS
  
CITY           SKY/WX    TMP DP  RH WIND       PRES   REMARKS
WORCESTER      MOCLDY    56  51  84 W10       29.70S                  
FITCHBURG      MOCLDY    54  51  90 N6        29.71R                  
ORANGE         MOCLDY    46  46 100 CALM      29.71S FOG              
SPRINGFIELD    MOCLDY    50  50 100 CALM      29.69F                  
WESTFIELD      MOCLDY    49  49 100 S5        29.70F                  
NORTH ADAMS    CLOUDY    51  47  86 E5        29.69F                  
PITTSFIELD     FOG       49  48  97 CALM      29.70S VSB 1/4          
$$
 
RIZALL-111000-
RHODE ISLAND
  
CITY           SKY/WX    TMP DP  RH WIND       PRES   REMARKS
PROVIDENCE     MOCLDY    55  53  93 SW7       29.70F                  
NEWPORT        FOG       52  51  97 VRB5      29.71F VSB 1/4          
BLOCK ISLAND   FOG       49  49 100 W5        29.72F VSB 1/2          
SMITHFIELD     MOCLDY    52  52 100 SW6       29.70F                  
WESTERLY       FOG       51  51 100 W5        29.71F VSB 3/4          
$$
 
CTZALL-111000-
CONNECTICUT
  
CITY           SKY/WX    TMP DP  RH WIND       PRES   REMARKS
BRADLEY INTL   CLOUDY    52  49  89 S3        29.70F                  
HARTFORD       CLOUDY    54  52  93 VRB3      29.71F FOG              
BRIDGEPORT     FOG       53  53 100 CALM      29.71S VSB 1/2          
DANBURY        FOG       54  52  93 CALM      29.71F VSB 1/4          
GROTON         CLOUDY    53  53 100 W5        29.71S FOG              
NEW HAVEN      FOG       53  53 100 CALM      29.71S VSB 1/4          
CHESTER        FOG       54  54 100 CALM      29.71F VSB 1/2          
MERIDEN        FOG       53  52  96 S3        29.71S VSB 1/2          
WILLIMANTIC    FOG       50  50 100 CALM      29.72S VSB 1/2          
OXFORD         FOG       50  50 100 CALM      29.72S VSB 1/4          
$$

MEZ002-015-021-024-NHZ003-005-008-011-012-014-VTZ005-008-111000-
NORTHERN NEW ENGLAND
  
CITY           SKY/WX    TMP DP  RH WIND       PRES   REMARKS
PORTLAND ME    CLEAR     43  39  86 N7        29.79S                  
BANGOR ME      CLOUDY    41  34  76 NE9       29.83S                  
CONCORD NH     CLOUDY    49  45  86 NE8       29.75R                  
MANCHESTER NH  CLOUDY    50  45  83 NE7       29.73R                  
NASHUA NH      MOCLDY    50  50 100 VRB5      29.74R                  
PORTSMOUTH NH  CLOUDY    45  42  88 NE14      29.77R                  
JAFFREY NH     PTCLDY    47  46  97 CALM      29.72R                  
KEENE NH       FOG       46  46 100 CALM      29.71S VSB 3/4          
BURLINGTON VT  PTCLDY    52  45  77 CALM      29.68S                  
MT. WASHINGTON NOT AVBL                                               
$$

NYZ052-076-111000-
EASTERN NEW YORK
  
CITY           SKY/WX    TMP DP  RH WIND       PRES   REMARKS
ALBANY         CLOUDY    56  52  86 S6        29.69S                  
NEW YORK CITY  FOG       54  53  97 E6        29.69F VSB 1/4          
$$
 
ANZALL-111000-
MARINE OBSERVATIONS
  
STATION/POSITION TIME  TEMP    WIND        PRES    VSBY  WAVE
                       AIR SEA DIR/SP/G                  HT/PER
                 (UTC) (F)     (DEG/KT/KT) (MB)    (MI)  (FT/S)
BOSTON BUOY      0840   45 45  360/ 16/ 17 1007.2R
BUZZARDS BAY     0800          240/  9/  9 1007.4F
NANTUCKET SOUND  0840      47                N/A
MASS BAY-STELLWA NOT AVBL
ISLE OF SHOALS   0800   44      30/ 23/ 25 1006.3R
S OF BLOCK IS    0826      46                N/A           3/12
$$

......................KEY.........................
  SKY/WX - SKY CONDITION/PRESENT WEATHER
  TMP    - TEMPERATURE IN FAHRENHEIT
  DWPT   - DEWPOINT IN FAHRENHEIT
  RH     - RELATIVE HUMIDITY IN PERCENT
  WIND   - DIRECTION AND SPEED IN MPH
  PRES   - MEAN SEA LEVEL PRESSURE IN INCHES OF HG
  WCI    - WIND CHILL INDEX
  VSB    - VISIBILITY IN MILES
  HX     - HEAT INDEX
  TC     - TEMPERATURE IN CELSIUS
  VRB    - VARIABLE WIND DIRECTION
  N/A    - NOT AVAILABLE
  
      

Other recent Regional Weather Roundups

Fri Apr 16, 10:05am

Fri Apr 16, 9:04am

Fri Apr 16, 8:04am

Fri Apr 16, 7:04am

Fri Apr 16, 6:04am

Fri Apr 16, 5:04am

Fri Apr 16, 4:04am

Fri Apr 16, 3:04am

Fri Apr 16, 2:04am

Fri Apr 16, 1:04am

Fri Apr 16, 12:04am

Thu Apr 15, 11:05pm

Thu Apr 15, 10:04pm

Thu Apr 15, 9:04pm

Thu Apr 15, 8:04pm

Thu Apr 15, 7:05pm

Thu Apr 15, 6:04pm

Thu Apr 15, 5:05pm

Thu Apr 15, 4:04pm

Thu Apr 15, 3:05pm

Thu Apr 15, 2:04pm

Thu Apr 15, 1:05pm

Thu Apr 15, 12:04pm

Thu Apr 15, 11:04am

Thu Apr 15, 10:05am

Thu Apr 15, 9:04am

Thu Apr 15, 8:04am

Thu Apr 15, 7:04am

Thu Apr 15, 6:04am

Thu Apr 15, 5:04am

Thu Apr 15, 4:04am

Thu Apr 15, 3:04am

Thu Apr 15, 2:04am

Thu Apr 15, 1:04am

Thu Apr 15, 12:04am

Wed Apr 14, 11:04pm

Wed Apr 14, 10:04pm

Wed Apr 14, 9:04pm

Wed Apr 14, 8:04pm

Wed Apr 14, 7:04pm

Wed Apr 14, 6:04pm

Wed Apr 14, 5:05pm

Wed Apr 14, 4:04pm

Wed Apr 14, 3:05pm

Wed Apr 14, 2:04pm

Wed Apr 14, 1:05pm

Wed Apr 14, 12:04pm

Wed Apr 14, 11:04am

Wed Apr 14, 10:04am

Wed Apr 14, 9:04am

Wed Apr 14, 8:04am

Wed Apr 14, 7:04am

Wed Apr 14, 6:04am

Wed Apr 14, 5:04am

Wed Apr 14, 4:04am

Wed Apr 14, 3:04am

Wed Apr 14, 2:04am

Wed Apr 14, 1:04am

Wed Apr 14, 12:04am

Tue Apr 13, 11:04pm

Tue Apr 13, 10:05pm

Tue Apr 13, 9:05pm

Tue Apr 13, 8:05pm

Tue Apr 13, 7:04pm

Tue Apr 13, 6:04pm

Tue Apr 13, 5:05pm

Tue Apr 13, 4:04pm

Tue Apr 13, 3:04pm

Tue Apr 13, 2:05pm

Tue Apr 13, 1:04pm

Tue Apr 13, 12:05pm

Tue Apr 13, 11:05am

Tue Apr 13, 10:04am

Tue Apr 13, 9:04am

Tue Apr 13, 8:04am

Tue Apr 13, 7:04am

Tue Apr 13, 6:04am

Tue Apr 13, 5:04am

Tue Apr 13, 4:04am

Tue Apr 13, 3:04am

Tue Apr 13, 2:04am

Tue Apr 13, 1:04am

Tue Apr 13, 12:05am

Mon Apr 12, 11:04pm

Mon Apr 12, 10:04pm

Mon Apr 12, 9:04pm

Mon Apr 12, 8:04pm

Mon Apr 12, 7:05pm

Mon Apr 12, 6:04pm

Mon Apr 12, 5:04pm

Mon Apr 12, 4:04pm

Mon Apr 12, 3:05pm

Mon Apr 12, 2:04pm

Mon Apr 12, 1:05pm

Mon Apr 12, 12:04pm

Mon Apr 12, 11:04am

Mon Apr 12, 10:04am

Mon Apr 12, 9:04am

Mon Apr 12, 8:04am

Mon Apr 12, 7:04am

Mon Apr 12, 6:04am

Mon Apr 12, 5:04am

Mon Apr 12, 4:04am

Mon Apr 12, 3:04am

Mon Apr 12, 2:04am

Mon Apr 12, 1:05am

Mon Apr 12, 12:04am

Sun Apr 11, 11:04pm

Sun Apr 11, 10:04pm

Sun Apr 11, 9:04pm

Sun Apr 11, 8:04pm

Sun Apr 11, 7:04pm

Sun Apr 11, 6:05pm

Sun Apr 11, 5:05pm

Sun Apr 11, 4:04pm

Sun Apr 11, 3:05pm

Sun Apr 11, 2:05pm

Sun Apr 11, 1:05pm

Sun Apr 11, 12:04pm

Sun Apr 11, 11:05am

Sun Apr 11, 10:05am

Sun Apr 11, 9:04am

Sun Apr 11, 8:04am

Sun Apr 11, 7:04am

Sun Apr 11, 6:04am

Sun Apr 11, 4:04am

Sun Apr 11, 3:04am

Sun Apr 11, 2:04am

Sun Apr 11, 1:05am

Sun Apr 11, 12:04am

Sat Apr 10, 11:05pm

Sat Apr 10, 10:04pm

Sat Apr 10, 9:04pm

Sat Apr 10, 8:04pm

Sat Apr 10, 7:05pm

Sat Apr 10, 6:04pm

Sat Apr 10, 5:04pm

Sat Apr 10, 4:04pm

Sat Apr 10, 3:04pm

Sat Apr 10, 2:05pm

Sat Apr 10, 1:04pm

Sat Apr 10, 12:04pm

Sat Apr 10, 11:04am

Sat Apr 10, 10:04am

Sat Apr 10, 9:04am

Sat Apr 10, 8:04am

Sat Apr 10, 7:04am

Sat Apr 10, 6:04am

Sat Apr 10, 5:04am

Sat Apr 10, 4:04am

Sat Apr 10, 3:04am

Sat Apr 10, 2:04am

Sat Apr 10, 1:05am

Sat Apr 10, 12:04am

Fri Apr 9, 11:04pm

Fri Apr 9, 10:05pm

Fri Apr 9, 9:04pm

Fri Apr 9, 8:05pm

Fri Apr 9, 7:05pm

Fri Apr 9, 6:04pm

Fri Apr 9, 5:04pm

Fri Apr 9, 4:05pm

Fri Apr 9, 3:05pm

Fri Apr 9, 2:04pm

Fri Apr 9, 1:04pm

Fri Apr 9, 12:04pm

Fri Apr 9, 11:05am

Meta data:

ID: a1c7c7f1-7f9d-4712-a58a-d85b7abeaed1
Link: https://api.weather.gov/products/a1c7c7f1-7f9d-4712-a58a-d85b7abeaed1